Zurück zum Katalog

SL-12 DEB

AktivHEO
NORAD 23297·DEBRIS·🇷🇺 Russia

Gestartet Dec 24, 1985 von Baikonur Cosmodrome

Loading…

Nächste Überflüge (nächste 24 Stunden)

TLE

AktuellSource: Space-Track

Epoche: Sep 14, 2026, 05:24 UTC

1 23297U 85118U   26257.22509796 -.00000052  00000-0  00000-0 0  9996
2 23297  67.4598 326.5121 4953448 142.6148 265.2174  4.68572833564252

Verfolge SL-12 DEB in Echtzeit mit AllMySat

Download on the App Store